CDT,Max TemperatureF,Mean TemperatureF,Min TemperatureF,Max Dew PointF,MeanDew PointF,Min DewpointF,Max Humidity, Mean Humidity, Min Humidity, Max Sea Level PressureIn, Mean Sea Level PressureIn, Min Sea Level PressureIn, Max VisibilityMiles, Mean VisibilityMiles, Min VisibilityMiles, Max Wind SpeedMPH, Mean Wind SpeedMPH, Max Gust SpeedMPH,PrecipitationIn, CloudCover, Events, WindDirDegrees
2013-10-1,69,54,38,45,36,31,71,48,24,29.96,29.85,29.68,10,10,10,26,11,33,0.00,0,,262
2013-10-2,67,52,37,44,39,36,85,59,32,30.03,29.97,29.93,10,10,10,22,8,27,T,3,Rain,38
2013-10-3,57,51,45,42,38,34,89,66,43,30.19,30.07,30.00,10,10,9,20,10,24,0.00,5,,35
2013-10-4,47,40,33,39,35,32,96,86,76,30.28,30.21,30.12,10,6,1,32,20,45,1.68,8,Rain-Snow,11
2013-10-5,45,40,35,36,34,31,92,81,70,30.09,30.03,29.96,10,8,3,33,18,43,0.87,7,Rain-Snow,351
2013-10-6,65,47,28,42,34,26,92,66,40,30.09,30.03,29.97,10,10,10,15,7,22,0.00,0,,273
2013-10-7,71,52,33,50,42,33,100,71,41,30.00,29.89,29.68,10,10,10,20,8,24,0.00,0,,168
2013-10-8,71,56,40,45,41,36,96,62,28,29.88,29.68,29.58,10,10,10,17,5,23,0.00,0,,316
2013-10-9,68,52,36,44,38,33,92,61,29,30.06,30.00,29.89,10,10,6,12,5,14,0.00,0,,11
2013-10-10,67,52,37,54,45,35,92,74,56,29.99,29.82,29.67,10,10,7,12,3,14,0.09,1,Rain,75
2013-10-11,65,55,44,58,52,42,100,89,78,29.63,29.46,29.33,10,8,2,36,17,48,0.49,7,Rain-Thunderstorm,73
2013-10-12,56,46,36,41,33,28,89,64,38,30.26,29.97,29.64,10,10,7,30,15,43,T,3,Rain,298
2013-10-13,54,40,26,41,35,27,100,75,50,30.40,30.34,30.28,10,10,10,24,6,30,0.04,4,Rain,88
2013-10-14,46,43,40,44,40,36,93,85,76,30.25,30.11,30.03,10,7,2,28,18,37,0.78,8,Rain,58
2013-10-15,50,40,29,38,36,28,92,73,54,30.24,30.16,30.09,10,10,8,24,12,30,0.28,6,Rain,350
2013-10-16,61,46,30,40,33,27,85,60,35,30.12,29.98,29.88,10,10,10,21,6,27,0.00,1,,266
2013-10-17,49,39,28,39,32,26,92,69,45,30.10,30.04,29.94,10,10,9,20,11,26,0.07,7,Rain,321
2013-10-18,49,39,28,38,33,26,86,68,50,30.07,30.00,29.85,10,10,7,22,10,27,0.02,7,Rain,289
2013-10-19,50,43,36,41,34,26,92,76,59,29.88,29.79,29.64,10,10,10,12,5,14,0.01,8,Rain,10
2013-10-20,47,40,32,43,35,27,89,77,64,30.08,29.85,29.59,10,9,6,25,12,33,0.02,8,Rain-Snow,336
2013-10-21,40,32,24,34,29,24,100,77,54,30.07,30.00,29.92,10,7,2,9,2,10,0.05,7,Rain-Snow,94
2013-10-22,37,35,32,33,31,29,100,85,70,30.17,30.07,29.96,10,8,2,9,4,12,0.04,8,Snow,34
2013-10-23,42,35,27,33,30,25,100,80,59,30.33,30.15,30.02,10,6,1,15,6,19,0.05,7,Snow,356
2013-10-24,43,34,25,30,26,23,92,73,53,30.41,30.36,30.31,10,10,10,13,5,17,0.00,3,,296
2013-10-25,62,44,25,40,30,22,92,62,32,30.28,30.07,29.95,10,10,9,24,11,31,0.00,0,,290
2013-10-26,48,37,26,29,26,24,85,64,42,30.32,30.18,29.92,10,10,10,12,6,16,0.00,0,,285
2013-10-27,47,37,26,34,27,19,100,77,53,30.39,30.04,29.84,10,10,10,25,12,30,0.00,2,,31
2013-10-28,32,26,20,20,19,17,84,71,58,30.59,30.52,30.43,10,10,10,17,10,22,0.00,6,,57
2013-10-29,35,30,25,28,22,18,82,73,64,30.50,30.30,30.14,10,10,10,10,6,13,0.00,8,,96
2013-10-30,40,35,29,33,30,27,92,84,75,30.13,29.91,29.68,10,10,10,14,5,16,0.00,7,,195
2013-10-31,47,37,27,37,31,25,92,76,60,29.70,29.62,29.57,10,10,10,22,8,27,T,2,Rain,274